• In Hungary
  • List of Countries
  • For 7 days
  • Water Temperature
  • Satellite Maps
  • Weather Map
  • News
  • Weather Widgets
  • user-avatar
    Login

    Hourly Weather Jonkoping

    Today, 25 February, Sunday

    Time Temperature Precipitation Wind Pressure Humidity
    00:00 -8°C° 0 mm 1 mps 769 mmHg 90%
    01:00 -9°C° 0 mm 2 mps 769 mmHg 90%
    02:00 -9°C° 0 mm 2 mps 769 mmHg 90%
    03:00 -9°C° 0 mm 2 mps 769 mmHg 90%
    04:00 -9°C° 0 mm 2 mps 768 mmHg 91%
    05:00 -9°C° 0 mm 2 mps 769 mmHg 91%
    06:00 -12°C° 0 mm 3 mps 769 mmHg 91%
    07:00 -12°C° 0 mm 3 mps 769 mmHg 90%
    08:00 -12°C° 0 mm 3 mps 769 mmHg 87%
    09:00 -10°C° 0 mm 3 mps 769 mmHg 83%
    10:00 -11°C° 0 mm 4 mps 769 mmHg 80%
    11:00 -10°C° 0 mm 4 mps 769 mmHg 77%
    12:00 -10°C° 0 mm 4 mps 769 mmHg 75%
    13:00 -9°C° 0 mm 4 mps 769 mmHg 73%
    14:00 -9°C° 0 mm 4 mps 769 mmHg 73%
    15:00 -9°C° 0 mm 4 mps 769 mmHg 74%
    16:00 -10°C° 0 mm 4 mps 769 mmHg 75%
    17:00 -9°C° 0 mm 3 mps 769 mmHg 77%
    18:00 -9°C° 0 mm 3 mps 769 mmHg 80%
    19:00 -10°C° 0 mm 3 mps 769 mmHg 82%
    20:00 -10°C° 0 mm 3 mps 769 mmHg 83%
    21:00 -10°C° 0 mm 3 mps 769 mmHg 84%
    22:00 -10°C° 0 mm 3 mps 769 mmHg 86%
    23:00 -10°C° 0 mm 3 mps 769 mmHg 86%

    Tomorrow, 26 February, Monday

    Time Temperature Precipitation Wind Pressure Humidity
    00:00 -11°C° 0 mm 4 mps 769 mmHg 87%
    01:00 -11°C° 0 mm 4 mps 769 mmHg 87%
    02:00 -11°C° 0 mm 4 mps 769 mmHg 88%
    03:00 -10°C° 0 mm 3 mps 769 mmHg 89%
    04:00 -12°C° 0 mm 3 mps 769 mmHg 89%
    05:00 -12°C° 0 mm 3 mps 769 mmHg 90%
    06:00 -12°C° 0 mm 3 mps 768 mmHg 90%
    07:00 -12°C° 0 mm 3 mps 768 mmHg 90%
    08:00 -12°C° 0 mm 3 mps 768 mmHg 88%
    09:00 -11°C° 0 mm 4 mps 768 mmHg 85%
    10:00 -10°C° 0 mm 4 mps 768 mmHg 83%
    11:00 -10°C° 0 mm 4 mps 768 mmHg 81%
    12:00 -9°C° 0 mm 4 mps 767 mmHg 79%
    13:00 -8°C° 0 mm 4 mps 767 mmHg 77%
    14:00 -8°C° 0 mm 4 mps 767 mmHg 78%
    15:00 -8°C° 0 mm 4 mps 766 mmHg 79%
    16:00 -9°C° 0 mm 4 mps 766 mmHg 79%
    17:00 -9°C° 0 mm 4 mps 766 mmHg 80%
    18:00 -9°C° 0 mm 4 mps 766 mmHg 82%
    19:00 -10°C° 0 mm 4 mps 766 mmHg 83%
    20:00 -10°C° 0 mm 4 mps 766 mmHg 83%
    21:00 -10°C° 0 mm 4 mps 766 mmHg 83%
    22:00 -10°C° 0 mm 4 mps 766 mmHg 83%
    23:00 -10°C° 0.1 mm 4 mps 766 mmHg 82%

    Day after tomorrow, 27 February, Tuesday

    Time Temperature Precipitation Wind Pressure Humidity
    00:00 -10°C° 0.1 mm 4 mps 766 mmHg 82%
    01:00 -11°C° 0.1 mm 4 mps 766 mmHg 81%
    02:00 -11°C° 0 mm 4 mps 766 mmHg 80%
    03:00 -12°C° 0 mm 5 mps 766 mmHg 80%
    04:00 -13°C° 0 mm 5 mps 765 mmHg 79%
    05:00 -14°C° 0 mm 5 mps 765 mmHg 78%
    06:00 -15°C° 0 mm 6 mps 765 mmHg 77%
    07:00 -16°C° 0 mm 6 mps 766 mmHg 75%
    08:00 -16°C° 0 mm 6 mps 766 mmHg 75%
    09:00 -16°C° 0 mm 6 mps 766 mmHg 74%
    10:00 -16°C° 0 mm 6 mps 766 mmHg 74%
    11:00 -15°C° 0.1 mm 6 mps 766 mmHg 75%
    12:00 -15°C° 0.1 mm 6 mps 767 mmHg 76%
    13:00 -14°C° 0.1 mm 7 mps 767 mmHg 77%
    14:00 -14°C° 0.2 mm 7 mps 767 mmHg 76%
    15:00 -14°C° 0.2 mm 7 mps 767 mmHg 76%
    16:00 -14°C° 0.2 mm 7 mps 767 mmHg 75%
    17:00 -15°C° 0.1 mm 7 mps 768 mmHg 76%
    18:00 -15°C° 0.1 mm 7 mps 768 mmHg 77%
    19:00 -15°C° 0.1 mm 6 mps 768 mmHg 78%
    20:00 -15°C° 0.1 mm 6 mps 769 mmHg 79%
    21:00 -15°C° 0.1 mm 6 mps 769 mmHg 80%
    22:00 -15°C° 0.1 mm 5 mps 770 mmHg 81%
    23:00 -15°C° 0.1 mm 5 mps 770 mmHg 82%

    28 February, Wednesday

    Time Temperature Precipitation Wind Pressure Humidity
    00:00 -15°C° 0.1 mm 5 mps 770 mmHg 83%
    01:00 -15°C° 0.1 mm 4 mps 771 mmHg 84%
    02:00 -14°C° 0.1 mm 5 mps 771 mmHg 84%
    03:00 -14°C° 0.1 mm 5 mps 771 mmHg 83%
    04:00 -14°C° 0.1 mm 5 mps 771 mmHg 83%
    05:00 -14°C° 0.1 mm 5 mps 771 mmHg 83%
    06:00 -14°C° 0.1 mm 5 mps 771 mmHg 83%
    07:00 -14°C° 0.1 mm 5 mps 771 mmHg 83%
    08:00 -13°C° 0.1 mm 5 mps 772 mmHg 81%
    09:00 -13°C° 0.1 mm 5 mps 772 mmHg 79%
    10:00 -12°C° 0.1 mm 6 mps 772 mmHg 76%
    11:00 -12°C° 0.1 mm 6 mps 772 mmHg 75%
    12:00 -11°C° 0.1 mm 6 mps 772 mmHg 73%
    13:00 -11°C° 0.1 mm 6 mps 772 mmHg 71%
    14:00 -11°C° 0.1 mm 6 mps 772 mmHg 73%
    15:00 -11°C° 0.1 mm 6 mps 771 mmHg 75%
    16:00 -11°C° 0.1 mm 5 mps 771 mmHg 76%
    17:00 -12°C° 0.1 mm 5 mps 771 mmHg 78%
    18:00 -12°C° 0.1 mm 5 mps 771 mmHg 79%
    19:00 -12°C° 0.1 mm 5 mps 771 mmHg 81%
    20:00 -12°C° 0.1 mm 5 mps 770 mmHg 81%
    21:00 -12°C° 0.1 mm 5 mps 770 mmHg 82%
    22:00 -12°C° 0.1 mm 5 mps 770 mmHg 82%
    23:00 -12°C° 0.1 mm 5 mps 770 mmHg 83%

    1 March, Thursday

    Time Temperature Precipitation Wind Pressure Humidity
    00:00 -12°C° 0.1 mm 5 mps 770 mmHg 83%
    01:00 -12°C° 0.1 mm 5 mps 769 mmHg 84%
    02:00 -12°C° 0.1 mm 5 mps 769 mmHg 84%
    03:00 -12°C° 0.1 mm 5 mps 768 mmHg 84%
    04:00 -12°C° 0.1 mm 5 mps 768 mmHg 84%
    05:00 -12°C° 0.1 mm 5 mps 768 mmHg 84%
    06:00 -12°C° 0.1 mm 5 mps 767 mmHg 84%
    07:00 -12°C° 0.1 mm 5 mps 767 mmHg 84%
    08:00 -11°C° 0.1 mm 5 mps 767 mmHg 81%
    09:00 -10°C° 0.1 mm 5 mps 767 mmHg 79%
    10:00 -10°C° 0.1 mm 5 mps 766 mmHg 77%
    11:00 -8°C° 0.1 mm 5 mps 766 mmHg 76%
    12:00 -8°C° 0.1 mm 5 mps 766 mmHg 75%
    13:00 -7°C° 0.1 mm 5 mps 765 mmHg 74%
    14:00 -7°C° 0.1 mm 5 mps 765 mmHg 75%
    15:00 -7°C° 0.1 mm 5 mps 764 mmHg 76%
    16:00 -7°C° 0.1 mm 5 mps 764 mmHg 77%
    17:00 -8°C° 0.1 mm 4 mps 764 mmHg 80%
    18:00 -8°C° 0.1 mm 4 mps 763 mmHg 82%
    19:00 -9°C° 0.1 mm 4 mps 763 mmHg 85%
    20:00 -9°C° 0 mm 4 mps 763 mmHg 86%
    21:00 -8°C° 0 mm 3 mps 763 mmHg 87%
    22:00 -9°C° 0 mm 3 mps 762 mmHg 88%
    23:00 -9°C° 0 mm 3 mps 762 mmHg 89%

    2 March, Friday

    Time Temperature Precipitation Wind Pressure Humidity
    00:00 -9°C° 0 mm 3 mps 761 mmHg 90%
    01:00 -9°C° 0 mm 3 mps 761 mmHg 91%
    02:00 -10°C° 0 mm 3 mps 760 mmHg 92%
    03:00 -10°C° 0 mm 3 mps 760 mmHg 92%
    04:00 -10°C° 0 mm 3 mps 759 mmHg 93%
    05:00 -10°C° 0 mm 3 mps 759 mmHg 93%
    06:00 -10°C° 0 mm 3 mps 758 mmHg 93%
    07:00 -10°C° 0 mm 3 mps 758 mmHg 92%
    08:00 -9°C° 0.1 mm 3 mps 757 mmHg 89%
    09:00 -8°C° 0.1 mm 3 mps 757 mmHg 86%
    10:00 -8°C° 0.1 mm 4 mps 756 mmHg 83%
    11:00 -7°C° 0.1 mm 4 mps 756 mmHg 82%
    12:00 -7°C° 0.1 mm 4 mps 755 mmHg 82%
    13:00 -5°C° 0.1 mm 4 mps 754 mmHg 81%
    14:00 -5°C° 0.1 mm 4 mps 754 mmHg 82%
    15:00 -5°C° 0.1 mm 4 mps 753 mmHg 83%
    16:00 -5°C° 0.1 mm 4 mps 752 mmHg 84%
    17:00 -7°C° 0.1 mm 4 mps 752 mmHg 86%
    18:00 -8°C° 0.1 mm 4 mps 751 mmHg 87%
    19:00 -7°C° 0.1 mm 3 mps 751 mmHg 89%
    20:00 -8°C° 0 mm 3 mps 751 mmHg 90%
    21:00 -8°C° 0 mm 3 mps 750 mmHg 91%
    22:00 -8°C° 0 mm 3 mps 750 mmHg 92%
    23:00 -8°C° 0 mm 3 mps 750 mmHg 92%
    Show more